Location: Leuk
(46.3174°N, 7.6341°E)
Time: 15:39:11
(UTC+00:00)

USA 267 - Pass Details

Date: 09 March 2021
Orbit: 1099 x 1108 km, 123.0° (Epoch: 20 March)

Event Time Altitude Azimuth Distance (km) Brightness Sun altitude
Rises 03:25:09 0° 54° (NE) 3,924 7.4 -26.0°
Reaches altitude 10° 03:27:41 10° 50° (NE) 2,964 6.4 -25.6°
Maximum altitude 03:33:59 53° 336° (NNW) 1,329 3.6 -24.6°
Enters shadow 03:35:56 40° 288° (WNW) 1,562 3.7 -24.3°
